Location: Goettingen
(51.5300°N, 9.9433°E)
Time: 11:20:13
(UTC+01:00)

ISS - Pass Details

Date: 26 March 2023
Orbit: 414 x 423 km, 51.6° (Epoch: 20 March)

Event Time Altitude Azimuth Distance (km) Brightness Sun altitude
Rises 22:53:59 0° 283° (WNW) 2,358 0.9 -27.2°
Reaches altitude 10° 22:56:19 10° 269° (W) 1,491 -0.5 -27.5°
Enters shadow 22:56:36 12° 266° (W) 1,400 -0.7 -27.5°
